| time (UTC) | temp C | wind direction | speed KPH | gust KPH | rain 1hr cm | rain 24hr cm | rain mn cm | humidity % | barometer mb |
| 20260508013100 | 2 | 298 | 0.0 | 3.2 | 0.00 | 0.00 | 0.00 | 62 | 1020.6 |
| 20260508011551 | 2 | 287 | 0.0 | 3.2 | 0.00 | 0.00 | 0.00 | 62 | 1020.6 |
| 20260508010047 | 2 | 317 | 0.0 | 1.6 | 0.00 | 0.00 | 0.00 | 60 | 1020.4 |
| 20260508004545 | 3 | 324 | 0.0 | 1.6 | 0.00 | 0.00 | 0.00 | 59 | 1020.2 |
| 20260508003042 | 3 | 317 | 0.0 | 3.2 | 0.00 | 0.00 | 0.00 | 60 | 1020.0 |
| 20260508001540 | 3 | 325 | 0.0 | 4.8 | 0.00 | 0.00 | 0.00 | 60 | 1019.9 |
| 20260508000037 | 3 | 296 | 0.0 | 4.8 | 0.00 | 0.00 | 0.00 | 60 | 1019.8 |
| 20260507234540 | 3 | 308 | 0.0 | 3.2 | 0.00 | 0.00 | 0.00 | 59 | 1019.7 |
| 20260507233032 | 3 | 313 | 0.0 | 1.6 | 0.00 | 0.00 | 0.00 | 57 | 1019.6 |
| 20260507231531 | 3 | 314 | 0.0 | 1.6 | 0.00 | 0.00 | 0.00 | 56 | 1019.5 |
| 20260507230028 | 3 | 314 | 0.0 | 1.6 | 0.00 | 0.00 | 0.00 | 55 | 1019.4 |
| 20260507224524 | 4 | 322 | 0.0 | 8.0 | 0.00 | 0.00 | 0.00 | 53 | 1019.2 |
| 20260507223021 | 4 | 315 | 0.0 | 3.2 | 0.00 | 0.00 | 0.00 | 53 | 1019.1 |
| 20260507221520 | 5 | 325 | 0.0 | 4.8 | 0.00 | 0.00 | 0.00 | 51 | 1019.1 |
| 20260507220016 | 5 | 306 | 0.0 | 4.8 | 0.00 | 0.00 | 0.00 | 50 | 1019.0 |
| 20260507214514 | 5 | 324 | 1.6 | 6.4 | 0.00 | 0.00 | 0.00 | 49 | 1018.8 |
| 20260507213016 | 5 | 300 | 1.6 | 6.4 | 0.00 | 0.00 | 0.00 | 48 | 1018.7 |
| 20260507211511 | 6 | 298 | 1.6 | 8.0 | 0.00 | 0.00 | 0.00 | 47 | 1018.6 |
| 20260507210011 | 6 | 303 | 0.0 | 4.8 | 0.00 | 0.00 | 0.00 | 45 | 1018.5 |
| 20260507204509 | 6 | 288 | 1.6 | 6.4 | 0.00 | 0.00 | 0.00 | 44 | 1018.4 |
| 20260507203007 | 7 | 286 | 1.6 | 4.8 | 0.00 | 0.00 | 0.00 | 43 | 1018.1 |
| 20260507201505 | 7 | 296 | 1.6 | 4.8 | 0.00 | 0.00 | 0.00 | 42 | 1017.9 |
| 20260507200005 | 7 | 293 | 0.0 | 3.2 | 0.00 | 0.00 | 0.00 | 43 | 1017.8 |
| 20260507194503 | 7 | 300 | 0.0 | 6.4 | 0.00 | 0.00 | 0.00 | 41 | 1017.6 |
| 20260507193101 | 8 | 314 | 0.0 | 1.6 | 0.00 | 0.00 | 0.00 | 42 | 1017.5 |
| 20260507191616 | 8 | 314 | 0.0 | 3.2 | 0.00 | 0.00 | 0.00 | 39 | 1017.2 |
| 20260507190056 | 9 | 293 | 0.0 | 3.2 | 0.00 | 0.00 | 0.00 | 41 | 1017.0 |
| 20260507184601 | 11 | 303 | 0.0 | 4.8 | 0.00 | 0.00 | 0.00 | 38 | 1016.7 |
| 20260507183051 | 12 | 279 | 1.6 | 4.8 | 0.00 | 0.00 | 0.00 | 36 | 1016.5 |
| 20260507181550 | 12 | 255 | 0.0 | 4.8 | 0.00 | 0.00 | 0.00 | 36 | 1016.4 |
| 20260507180048 | 13 | 305 | 3.2 | 9.7 | 0.00 | 0.00 | 0.00 | 33 | 1016.1 |
| 20260507174547 | 13 | 225 | 0.0 | 4.8 | 0.00 | 0.00 | 0.00 | 35 | 1015.8 |
| 20260507173045 | 14 | 77 | 3.2 | 8.0 | 0.00 | 0.00 | 0.00 | 35 | 1015.6 |
| 20260507171549 | 14 | 71 | 6.4 | 9.7 | 0.00 | 0.00 | 0.00 | 34 | 1015.4 |
| 20260507170042 | 15 | 82 | 0.0 | 4.8 | 0.00 | 0.00 | 0.00 | 30 | 1015.3 |
| 20260507164555 | 15 | 90 | 1.6 | 4.8 | 0.00 | 0.00 | 0.00 | 32 | 1015.1 |
| 20260507163039 | 15 | 92 | 3.2 | 9.7 | 0.00 | 0.00 | 0.00 | 32 | 1015.1 |
| 20260507161539 | 15 | 147 | 1.6 | 6.4 | 0.00 | 0.00 | 0.00 | 31 | 1015.1 |
| 20260507160036 | 15 | 105 | 0.0 | 11.3 | 0.00 | 0.00 | 0.00 | 32 | 1014.9 |
| 20260507154536 | 15 | 114 | 3.2 | 9.7 | 0.00 | 0.00 | 0.00 | 33 | 1014.9 |
| 20260507153031 | 15 | 101 | 1.6 | 14.5 | 0.00 | 0.00 | 0.00 | 34 | 1014.8 |
| 20260507151529 | 15 | 86 | 6.4 | 12.9 | 0.00 | 0.00 | 0.00 | 32 | 1014.7 |
| 20260507150027 | 15 | 104 | 1.6 | 14.5 | 0.00 | 0.00 | 0.00 | 33 | 1014.7 |
| 20260507144524 | 15 | 96 | 8.0 | 16.1 | 0.00 | 0.00 | 0.00 | 34 | 1014.6 |
| 20260507143038 | 15 | 72 | 1.6 | 16.1 | 0.00 | 0.00 | 0.00 | 33 | 1014.5 |
| 20260507141520 | 15 | 124 | 1.6 | 6.4 | 0.00 | 0.00 | 0.00 | 33 | 1014.5 |
| 20260507140020 | 15 | 78 | 4.8 | 14.5 | 0.00 | 0.00 | 0.00 | 34 | 1014.5 |
| 20260507134517 | 15 | 347 | 3.2 | 16.1 | 0.00 | 0.00 | 0.00 | 32 | 1014.4 |
| 20260507133014 | 15 | 136 | 1.6 | 11.3 | 0.00 | 0.00 | 0.00 | 33 | 1014.3 |
| 20260507131512 | 15 | 99 | 4.8 | 16.1 | 0.00 | 0.00 | 0.00 | 35 | 1014.3 |
| 20260507130026 | 15 | 66 | 8.0 | 19.3 | 0.00 | 0.00 | 0.00 | 36 | 1014.2 |
| 20260507124507 | 15 | 71 | 1.6 | 14.5 | 0.00 | 0.00 | 0.00 | 35 | 1014.2 |
| 20260507123005 | 14 | 38 | 8.0 | 16.1 | 0.00 | 0.00 | 0.00 | 35 | 1014.1 |
| 20260507121503 | 15 | 102 | 1.6 | 12.9 | 0.00 | 0.00 | 0.00 | 36 | 1014.1 |
| 20260507120002 | 14 | 52 | 11.3 | 19.3 | 0.00 | 0.00 | 0.00 | 33 | 1014.1 |
| 20260507114601 | 15 | 53 | 4.8 | 9.7 | 0.00 | 0.00 | 0.00 | 33 | 1014.0 |
| 20260507113058 | 15 | 84 | 3.2 | 11.3 | 0.00 | 0.00 | 0.00 | 33 | 1014.0 |
| 20260507111556 | 14 | 73 | 4.8 | 12.9 | 0.00 | 0.00 | 0.00 | 37 | 1014.1 |
| 20260507110055 | 14 | 103 | 3.2 | 11.3 | 0.00 | 0.00 | 0.00 | 36 | 1014.0 |
| 20260507104558 | 13 | 47 | 3.2 | 11.3 | 0.00 | 0.00 | 0.00 | 36 | 1013.9 |
| 20260507103051 | 14 | 60 | 1.6 | 8.0 | 0.00 | 0.00 | 0.00 | 38 | 1013.8 |
| 20260507101548 | 14 | 192 | 1.6 | 11.3 | 0.00 | 0.00 | 0.00 | 38 | 1013.8 |
| 20260507100054 | 13 | 71 | 3.2 | 8.0 | 0.00 | 0.00 | 0.00 | 42 | 1013.7 |
| 20260507094544 | 13 | 62 | 6.4 | 12.9 | 0.00 | 0.00 | 0.00 | 39 | 1013.7 |
| 20260507093043 | 12 | 137 | 1.6 | 8.0 | 0.00 | 0.00 | 0.00 | 43 | 1013.7 |
| 20260507091541 | 12 | 137 | 1.6 | 9.7 | 0.00 | 0.00 | 0.00 | 43 | 1013.7 |
| 20260507090043 | 12 | 80 | 3.2 | 8.0 | 0.00 | 0.00 | 0.00 | 45 | 1013.7 |
| 20260507084539 | 12 | 51 | 4.8 | 8.0 | 0.00 | 0.00 | 0.00 | 46 | 1013.6 |
| 20260507083032 | 11 | 64 | 0.0 | 6.4 | 0.00 | 0.00 | 0.00 | 49 | 1013.5 |
| 20260507081532 | 11 | 44 | 3.2 | 8.0 | 0.00 | 0.00 | 0.00 | 49 | 1013.4 |
| 20260507080030 | 11 | 66 | 3.2 | 6.4 | 0.00 | 0.00 | 0.00 | 48 | 1013.3 |
| 20260507074529 | 11 | 315 | 1.6 | 6.4 | 0.00 | 0.00 | 0.00 | 49 | 1013.3 |
| 20260507073027 | 10 | 72 | 1.6 | 9.7 | 0.00 | 0.00 | 0.00 | 50 | 1013.3 |
| 20260507071531 | 10 | 70 | 0.0 | 4.8 | 0.00 | 0.00 | 0.00 | 51 | 1013.2 |
| 20260507070020 | 9 | 19 | 1.6 | 8.0 | 0.00 | 0.00 | 0.00 | 54 | 1013.2 |
| 20260507064533 | 9 | 63 | 4.8 | 9.7 | 0.00 | 0.00 | 0.00 | 55 | 1013.1 |
| 20260507063019 | 8 | 43 | 1.6 | 9.7 | 0.00 | 0.00 | 0.00 | 57 | 1013.0 |
| 20260507061515 | 8 | 40 | 3.2 | 8.0 | 0.00 | 0.00 | 0.00 | 59 | 1012.9 |
| 20260507060012 | 7 | 350 | 3.2 | 8.0 | 0.00 | 0.00 | 0.00 | 59 | 1012.8 |
| 20260507054510 | 7 | 53 | 4.8 | 9.7 | 0.00 | 0.00 | 0.00 | 60 | 1012.7 |
| 20260507053008 | 7 | 37 | 4.8 | 11.3 | 0.00 | 0.00 | 0.00 | 60 | 1012.7 |
| 20260507051505 | 7 | 34 | 4.8 | 11.3 | 0.00 | 0.00 | 0.00 | 59 | 1012.6 |
| 20260507050010 | 6 | 344 | 1.6 | 8.0 | 0.00 | 0.00 | 0.00 | 60 | 1012.7 |
| 20260507044600 | 6 | 13 | 1.6 | 4.8 | 0.00 | 0.00 | 0.00 | 60 | 1012.7 |
| 20260507043057 | 5 | 33 | 0.0 | 6.4 | 0.00 | 0.00 | 0.00 | 61 | 1012.6 |
| 20260507041552 | 4 | 296 | 3.2 | 8.0 | 0.00 | 0.00 | 0.00 | 64 | 1012.5 |
| 20260507040048 | 3 | 318 | 1.6 | 6.4 | 0.00 | 0.00 | 0.00 | 66 | 1012.4 |
| 20260507034546 | 3 | 324 | 3.2 | 6.4 | 0.00 | 0.00 | 0.00 | 70 | 1012.3 |
| 20260507033045 | 2 | 308 | 0.0 | 4.8 | 0.00 | 0.00 | 0.00 | 71 | 1012.2 |
| 20260507031545 | 2 | 321 | 1.6 | 4.8 | 0.00 | 0.00 | 0.00 | 71 | 1012.2 |
| 20260507030044 | 2 | 288 | 1.6 | 8.0 | 0.00 | 0.00 | 0.00 | 73 | 1012.1 |
| 20260507024543 | 2 | 314 | 0.0 | 4.8 | 0.00 | 0.00 | 0.00 | 74 | 1012.3 |
| 20260507023043 | 2 | 296 | 0.0 | 3.2 | 0.00 | 0.00 | 0.00 | 75 | 1012.4 |
| 20260507021543 | 2 | 313 | 0.0 | 1.6 | 0.00 | 0.00 | 0.00 | 75 | 1012.4 |
| 20260507020120 | 2 | 313 | 0.0 | 1.6 | 0.00 | 0.00 | 0.00 | 74 | 1012.4 |
| 20260507014544 | 2 | 317 | 0.0 | 3.2 | 0.00 | 0.00 | 0.00 | 71 | 1012.4 |